SCP
0 0 0 0 0 0 0 0 0 0 1 0 0 0 0 0 0 0 0 0 0 0 0 0 0 0 0 0 0 0 0 0 0 0 0 0 0 0 0 0 0 0 0 0
0 0 0 0 0 0 0 0 0 1 1 0 0 0 0 0 0 0 0 0 0 0 0 0 0 0 0 0 0 0 0 0 0 0 0 0 0 0 0 0 0 0 0 0
0 0 0 0 0 0 0 0 0 0 0 0 0 0 0 0 0 0 0 0 0 0 0 0 0 0 0 0 0 0 0 0 0 0 0 0 0 0 0 0 0 0 0 0
0 0 0 0 0 0 0 0 0 0 0 0 0 0 0 0 0 0 0 0 0 0 0 0 0 0 0 0 0 0 0 0 0 0 0 0 0 0 0 0 0 0 0 0
0 0 0 0 0 0 0 0 0 0 0 0 0 0 0 0 0 0 0 0 0 0 0 0 0 0 0 0 0 0 0 0 0 0 0 0 0 0 0 0 0 0 0 0
0 0 0 0 0 0 0 0 0 0 0 0 0 0 0 0 0 0 0 0 0 0 0 0 0 0 0 0 0 0 0 0 0 0 0 0 0 0 0 0 0 0 0 0
0 0 0 0 0 0 0 0 0 0 0 0 0 0 0 0 0 0 0 0 0 0 0 0 0 0 0 0 0 0 0 0 0 0 0 0 0 0 0 0 0 0 0 0
0 0 0 0 0 0 0 0 0 0 0 0 0 0 0 0 0 0 0 0 0 0 0 0 0 0 0 0 0 0 0 0 0 0 0 0 0 0 0 0 0 0 0 0
0 0 0 0 0 0 0 0 0 0 0 0 0 0 0 0 0 0 0 0 0 0 0 0 0 -0 -0 -0 0 0 0 0 0 0 0 0 0 0 0 0 0 0 0 0
0 0 0 0 0 0 0 0 0 0 0 0 0 0 0 0 0 0 0 0 -0 -0 -0 -0 -0 -0 -0 -0 0 0 0 0 0 0 0 0 0 0 0 0 0 0 0 0
0 0 0 0 0 0 0 0 0 0 0 0 0 0 0 0 0 0 0 0 -0 -0 -0 -0 -0 -0 0 0 0 0 0 0 0 0 0 0 0 0 0 0 0 0 0 0
0 0 0 0 0 0 0 0 0 0 0 0 0 0 0 0 0 0 -0 -0 -0 -0 -0 -0 0 0 0 0 0 0 0 0 0 0 0 0 0 0 0 0 0 0 0 0
0 0 0 0 0 0 0 0 0 0 0 0 0 0 0 0 -0 -0 -0 -0 -0 -0 0 0 0 0 0 0 0 0 0 0 0 0 0 0 0 0 0 0 0 0 0 0
0 0 0 0 0 0 0 0 0 0 0 0 0 0 0 -0 -0 -0 -0 -0 -0 0 0 0 0 0 0 0 0 0 0 0 0 0 0 0 0 0 0 0 0 0 0 0
0 0 0 0 0 0 0 0 0 0 0 0 0 0 -0 -0 -0 -0 -0 -0 0 0 0 0 0 0 0 0 0 0 0 0 0 0 0 0 0 0 0 0 0 0 0 0
0 0 0 0 0 0 0 0 0 0 0 0 0 -0 -0 -0 -0 -0 -0 0 0 0 0 0 0 0 0 0 0 0 0 0 0 0 0 0 0 0 0 0 0 0 0 0
0 0 0 0 0 0 0 0 -0 -0 -0 -0 -0 -0 -0 -0 -0 -0 0 0 0 0 0 0 0 0 0 0 0 0 0 0 0 0 0 0 0 0 0 0 0 0 0 0
0 0 0 0 0 0 -0 -0 -0 -0 -0 -0 -0 -0 -0 -0 0 0 0 0 0 0 0 0 0 0 0 0 0 0 0 0 0 0 0 0 0 0 0 0 0 0 -0 -0
0 0 0 0 0 -0 -0 -0 -0 -0 -0 -0 -0 -0 -0 0 0 0 0 0 0 0 0 0 0 0 0 0 0 0 0 0 0 0 0 0 0 0 0 0 0 0 -0 -0
0 0 0 0 0 -0 -0 -0 -0 -0 -0 -0 -0 -0 -0 0 0 0 0 0 0 0 0 0 0 0 0 0 0 0 0 0 0 0 0 0 0 0 0 0 0 0 -0 -0
0 0 0 0 0 -0 -0 -0 -0 -0 -0 -0 -0 -0 -0 0 0 0 0 0 0 0 0 0 0 0 0 0 0 0 0 0 0 0 0 0 0 0 0 0 0 0 0 0
0 0 0 0 0 -0 -0 -0 -0 -0 -0 -0 -0 -0 -0 0 0 0 0 0 0 0 0 0 0 0 0 0 0 0 0 0 0 0 0 0 0 0 0 0 0 0 0 0
0 0 0 0 0 -0 -0 -0 -0 -0 -0 -0 -0 -0 0 0 0 0 0 0 0 0 0 0 0 0 0 0 0 0 0 0 0 0 0 0 0 0 0 0 0 0 0 0
0 0 0 0 0 -0 -0 -0 -0 -0 -0 -0 0 0 0 0 0 0 0 0 0 0 0 0 0 0 0 0 0 0 0 0 0 0 0 0 0 0 0 0 0 0 0 0
0 0 0 0 -0 -0 -0 -0 -0 -0 -0 -0 0 0 0 0 0 0 0 0 0 0 0 0 0 0 0 0 0 0 0 0 0 0 0 0 0 0 0 0 0 0 0 0
0 0 -0 -0 -0 -0 -0 -0 -0 -0 -0 -0 0 0 0 0 0 0 0 0 0 0 0 0 0 0 0 0 0 0 0 0 0 0 0 0 0 0 0 0 0 0 0 0
0 0 -0 -0 -0 -0 -0 -0 -0 0 0 0 0 0 0 0 0 0 0 0 0 0 0 0 0 0 0 0 0 0 0 0 0 0 0 0 0 0 0 0 0 0 0 0
Wind_Speed
1 3 4 5 7 4 1 6 8 8 7 4 3 6 8 9 9 10 9 9 8 7 7 8 8 8 8 7 7 7 8 8 7 6 6 6 6 6 6 5 5 4 4 3
6 8 7 7 9 5 4 4 10 11 7 4 5 7 7 8 10 10 9 9 8 8 8 8 8 8 8 8 7 7 8 7 6 5 5 5 4 5 5 5 5 5 4 2
3 6 6 8 10 7 8 6 6 6 7 7 8 9 5 3 6 8 8 8 8 7 7 7 7 7 8 7 8 8 8 6 4 3 3 3 5 6 5 4 4 4 3 2
2 6 3 1 6 13 14 13 11 13 10 10 10 8 9 8 5 7 8 9 8 8 9 8 7 7 7 8 7 7 5 3 2 2 4 5 6 5 4 3 2 2 2 3
3 1 1 2 5 2 7 6 6 10 11 10 9 7 8 9 8 7 8 8 8 8 8 8 7 7 7 6 5 4 2 2 2 4 5 5 5 3 2 2 2 2 2 4
3 2 2 1 6 2 10 4 1 7 8 8 4 2 2 4 7 8 8 7 8 7 8 7 5 5 5 4 2 2 1 2 4 5 5 5 4 2 2 2 2 3 4 4
2 1 1 3 6 3 4 5 2 5 5 5 3 4 7 7 6 7 8 7 7 7 6 5 4 4 3 2 1 1 2 4 5 5 5 5 3 2 2 3 3 4 4 4
2 1 4 4 4 3 4 3 4 5 5 8 10 10 9 8 8 8 8 7 6 6 5 3 2 2 1 1 1 2 4 5 5 4 5 5 4 3 4 4 4 4 4 4
3 5 3 1 4 3 5 5 4 5 7 12 12 10 9 8 8 6 6 5 5 5 3 1 1 1 1 1 2 3 4 5 5 5 4 4 4 4 3 3 3 2 3 3
2 2 2 3 3 3 3 3 4 7 11 11 11 11 10 9 7 6 5 4 3 3 2 1 1 1 2 1 3 4 5 5 5 5 4 3 3 3 2 1 2 2 3 4
1 0 2 3 3 2 2 3 5 7 8 11 13 12 10 9 7 5 4 3 3 2 2 2 2 2 2 3 5 6 6 5 4 4 3 2 2 2 2 2 2 1 1 2
3 2 2 3 3 2 1 3 7 10 9 9 11 11 10 8 6 5 4 3 3 3 3 4 4 4 4 4 6 6 5 4 3 2 2 2 1 1 2 3 4 4 5 4
1 1 1 2 3 2 2 4 8 11 12 12 10 10 9 6 5 4 4 4 4 5 5 5 5 5 4 4 5 5 4 4 3 3 3 2 2 2 2 3 4 6 8 8
1 1 2 3 2 4 7 10 12 12 12 11 10 8 7 5 5 5 4 5 6 6 6 6 6 4 3 4 4 4 3 3 3 3 3 3 3 2 2 1 2 3 4 5
5 4 4 4 7 8 9 12 14 13 11 9 7 6 6 6 6 5 5 7 7 7 6 6 5 3 2 3 3 3 2 1 1 2 2 2 2 2 1 1 0 1 2 4
5 6 7 9 10 10 10 12 12 10 9 7 6 5 6 6 6 7 7 8 8 6 4 4 3 2 2 2 1 1 1 2 1 1 1 1 2 2 1 1 0 1 2 3
7 6 6 8 9 9 9 9 9 9 8 7 6 7 9 10 10 8 7 7 7 5 4 3 2 1 1 1 1 2 2 2 2 1 1 1 2 2 2 2 1 1 0 2
6 6 7 8 8 8 8 7 7 7 6 6 8 10 11 10 9 8 7 7 7 5 4 2 2 3 3 2 1 1 1 1 1 1 2 2 2 2 2 2 2 2 1 2
7 7 7 7 7 6 6 6 6 6 6 8 10 9 8 8 8 7 7 7 6 4 2 3 6 5 4 5 3 3 3 3 3 3 3 4 4 3 3 2 2 2 1 1
8 8 8 7 7 7 6 6 6 6 7 9 9 8 7 7 7 7 6 4 2 2 0 3 4 4 4 4 4 3 4 4 4 3 3 3 3 3 2 2 2 1 1 1
9 8 8 8 8 7 7 7 7 8 8 9 9 8 8 7 7 7 6 3 0 1 4 5 4 3 3 4 5 3 3 3 3 3 3 3 3 3 2 2 2 2 2 2
9 9 9 9 8 7 6 7 8 8 8 8 9 8 7 7 6 5 4 2 2 5 4 3 3 6 6 6 4 4 4 4 4 3 3 3 3 3 3 3 3 3 3 3
9 9 10 10 9 7 7 7 8 8 8 7 8 8 7 6 5 5 3 1 3 6 4 3 5 9 9 5 4 5 5 5 4 4 3 3 4 4 4 4 4 4 4 4
9 9 9 8 8 7 6 6 7 6 7 6 6 8 8 6 3 2 3 4 6 6 3 4 7 8 7 4 4 4 4 4 4 4 4 4 4 4 4 5 4 4 5 6
10 9 8 8 7 5 6 7 7 6 5 4 6 7 6 6 6 4 3 3 5 4 2 3 6 7 4 3 3 3 3 3 4 4 4 4 4 4 4 5 5 5 5 5
8 7 6 6 5 5 5 5 4 4 4 4 4 5 5 4 5 4 3 3 3 2 2 2 3 5 4 4 4 3 3 4 4 4 5 5 5 5 5 5 7 5 5 5
8 6 5 4 5 5 5 5 5 4 5 6 6 5 5 5 4 4 3 2 2 1 1 2 3 4 4 4 4 4 4 4 4 4 4 5 5 5 5 6 5 5 5 5
Wind_Direction
9 355 4 349 343 349 133 164 156 162 138 141 140 137 136 133 129 129 132 131 128 124 117 109 103 97 92 88 85 90 90 85 80 80 81 85 83 79 75 74 76 74 81 105
9 2 2 11 8 34 62 107 123 120 104 94 78 99 111 132 141 141 139 137 130 124 114 105 101 99 92 84 79 83 83 78 74 74 80 84 87 88 85 76 67 60 60 67
350 340 23 15 360 56 59 37 127 129 120 114 83 65 63 111 136 139 141 133 125 117 107 99 93 94 90 86 81 77 75 76 76 80 93 92 97 91 86 78 65 57 48 38
37 38 52 89 56 73 71 52 70 96 106 107 103 82 45 36 92 115 118 119 116 110 102 95 91 87 85 81 80 82 83 83 86 84 86 89 90 89 84 73 65 49 19 0
99 88 301 69 17 48 100 57 70 110 121 128 130 84 45 33 53 86 101 111 112 111 110 104 98 95 92 87 88 94 101 85 74 89 99 95 92 86 75 71 47 21 359 359
111 134 214 327 327 89 104 86 69 125 142 162 172 113 122 81 86 94 99 105 110 109 106 103 96 95 97 97 98 112 104 78 83 95 102 105 108 94 72 77 45 20 14 15
107 170 254 309 317 47 130 194 183 121 129 134 128 138 132 121 110 111 110 109 108 106 103 102 99 96 95 106 160 167 101 99 98 101 107 109 98 76 61 53 41 30 23 9
104 179 249 318 31 92 168 157 114 112 116 119 120 118 125 130 130 127 120 113 109 107 104 105 110 106 97 252 229 122 110 107 105 103 102 101 96 74 56 54 46 24 7 349
190 212 234 44 109 142 142 129 142 144 145 138 137 140 139 141 139 133 128 121 116 117 115 123 185 153 156 240 160 127 116 117 112 100 90 100 106 93 63 49 40 8 355 338
43 36 41 57 71 67 103 135 150 148 148 146 143 144 140 140 139 136 133 131 126 124 139 198 223 199 206 180 121 115 120 123 120 112 104 100 108 116 103 68 38 2 346 332
37 5 39 21 24 30 51 85 111 126 138 143 138 140 140 140 142 144 142 143 148 159 157 162 131 116 103 92 98 104 115 127 131 135 141 140 142 165 161 193 193 207 277 294
228 248 223 268 300 319 126 133 133 124 117 124 132 135 135 137 140 145 157 159 153 144 127 117 107 97 92 95 101 110 117 133 148 155 165 172 187 273 261 225 236 243 260 279
236 291 249 294 328 0 114 116 121 123 126 125 123 128 130 131 140 151 159 155 146 136 125 115 106 98 94 98 104 116 135 152 167 175 182 190 196 207 274 297 275 273 276 291
12 68 47 17 35 69 93 101 103 105 111 116 120 124 126 132 146 156 159 147 132 121 116 112 106 104 107 104 102 114 140 163 174 194 197 195 197 199 204 231 303 311 304 307
40 70 97 88 81 84 95 103 105 107 110 111 119 129 136 141 146 144 134 123 113 111 116 118 123 144 147 123 121 131 146 191 214 220 212 198 190 179 183 195 239 334 347 340
95 86 92 92 92 94 100 106 109 114 118 123 132 138 135 126 117 111 111 113 112 116 123 125 148 201 191 163 177 209 240 247 214 185 177 159 167 166 171 176 139 48 13 338
128 118 112 106 104 105 107 112 118 123 127 130 127 114 105 102 98 95 93 97 105 109 110 112 123 151 136 134 234 238 246 256 237 120 90 126 145 154 161 158 149 138 285 313
143 139 135 129 125 120 120 121 125 129 130 124 113 108 110 110 111 109 105 96 85 73 65 72 57 52 49 21 23 134 150 137 125 120 96 101 113 120 125 124 137 147 236 313
147 148 146 140 137 136 137 135 136 132 121 115 114 115 117 118 118 116 109 98 95 86 9 18 44 51 17 358 31 80 87 87 82 81 85 90 87 87 98 106 121 156 203 340
160 157 151 147 142 136 134 134 127 118 117 117 114 110 107 112 119 118 110 107 139 177 67 62 58 32 11 21 66 89 92 95 95 93 89 89 92 91 93 100 104 103 80 23
160 157 152 143 139 137 135 129 122 120 120 121 122 123 122 120 117 116 111 108 241 105 86 66 44 16 17 54 71 79 82 84 88 94 95 95 93 88 84 80 75 67 54 39
150 148 142 138 133 132 131 124 121 122 120 120 121 122 123 121 115 107 109 151 162 118 93 58 37 45 67 70 62 62 63 67 74 82 82 83 86 84 74 70 65 62 57 47
138 137 136 136 137 137 129 124 127 129 130 133 132 132 133 135 134 126 128 182 128 115 102 77 67 68 72 66 61 62 64 67 70 76 76 75 80 82 78 70 67 66 61 49
132 133 135 135 129 128 132 137 135 137 140 139 140 141 135 123 112 131 152 147 140 122 105 90 84 89 90 76 67 65 65 70 73 74 74 70 72 76 80 78 72 65 59 55
134 133 133 132 133 142 147 140 131 134 134 121 129 138 138 139 143 159 157 156 150 120 89 77 98 110 107 93 83 76 72 81 94 91 80 76 73 75 77 76 74 70 63 54
135 137 141 147 149 147 143 137 138 147 132 116 121 132 127 127 133 141 153 174 175 121 86 74 103 103 100 97 93 89 80 78 80 82 89 85 78 76 77 77 75 69 61 54
131 130 131 135 142 145 143 145 149 155 144 135 137 142 140 141 147 162 175 183 185 139 96 116 118 108 101 94 87 80 75 74 78 83 87 87 84 81 79 79 75 69 61 55